KC5ZJO-1 Weather Reports


Display with metric or nautical units.
time (UTC)temp
F
wind
direction
speed
MPH
gust
MPH
rain 1hr
in
rain 24hr
in
rain mn
in
humidity
%
barometer
mb
20190923171959 89 250 0.0 8.0 0.00 0.00 0.00 50 1017.0
20190923171459 89 230 0.0 10.0 0.00 0.00 0.00 51 1017.1
20190923170958 89 201 0.0 11.0 0.00 0.00 0.00 49 1017.2
20190923170459 89 214 6.0 11.0 0.00 0.00 0.00 48 1017.4
20190923165959 89 220 3.0 12.0 0.00 0.00 0.00 49 1017.4
20190923165459 89 189 8.0 12.0 0.00 0.00 0.00 49 1017.4
20190923164959 89 215 1.0 11.0 0.00 0.00 0.00 49 1017.5
20190923164459 89 232 7.0 11.0 0.00 0.00 0.00 49 1017.6
20190923163959 88 227 6.0 10.0 0.00 0.00 0.00 49 1017.5
20190923163459 88 201 3.0 12.0 0.00 0.00 0.00 50 1017.5
20190923163000 87 187 3.0 12.0 0.00 0.00 0.00 51 1017.6
20190923162459 87 195 5.0 10.0 0.00 0.00 0.00 50 1017.6
20190923161959 87 192 2.0 11.0 0.00 0.00 0.00 50 1017.7
20190923161459 86 203 4.0 11.0 0.00 0.00 0.00 52 1017.8
20190923160959 86 186 1.0 10.0 0.00 0.00 0.00 53 1017.9
20190923160459 85 181 5.0 10.0 0.00 0.00 0.00 54 1017.9
20190923155959 84 189 0.0 6.0 0.00 0.00 0.00 56 1018.0
20190923155500 83 189 0.0 6.0 0.00 0.00 0.00 57 1018.1
20190923154959 82 202 0.0 7.0 0.00 0.00 0.00 56 1018.2
20190923154459 81 176 1.0 7.0 0.00 0.00 0.00 57 1018.2
20190923153959 81 167 0.0 7.0 0.00 0.00 0.00 58 1018.2
20190923153459 81 173 3.0 7.0 0.00 0.00 0.00 57 1018.3
20190923152959 81 220 1.0 8.0 0.00 0.00 0.00 57 1018.3
20190923152459 81 172 0.0 8.0 0.00 0.00 0.00 56 1018.4
20190923151959 82 196 1.0 6.0 0.00 0.00 0.00 55 1018.5
20190923151458 82 278 0.0 10.0 0.00 0.00 0.00 55 1018.4
20190923150959 82 197 3.0 13.0 0.00 0.00 0.00 54 1018.5
20190923150458 82 201 3.0 13.0 0.00 0.00 0.00 54 1018.5
20190923150000 82 220 4.0 10.0 0.00 0.00 0.00 56 1018.5
20190923145502 81 210 2.0 9.0 0.00 0.00 0.00 56 1018.5
20190923144959 80 204 2.0 8.0 0.00 0.00 0.00 58 1018.6
20190923144459 80 176 2.0 8.0 0.00 0.00 0.00 58 1018.6
20190923143959 80 179 1.0 10.0 0.00 0.00 0.00 58 1018.5
20190923143459 79 178 3.0 11.0 0.00 0.00 0.00 59 1018.6
20190923142959 79 175 5.0 11.0 0.00 0.00 0.00 60 1018.5
20190923142459 78 183 2.0 8.0 0.00 0.00 0.00 63 1018.6
20190923141959 77 181 3.0 8.0 0.00 0.00 0.00 65 1018.6
20190923141459 77 202 0.0 4.0 0.00 0.00 0.00 65 1018.6
20190923140959 76 195 0.0 0.0 0.00 0.00 0.00 67 1018.7
20190923140459 76 195 0.0 0.0 0.00 0.00 0.00 70 1018.7
20190923135959 75 195 0.0 0.0 0.00 0.00 0.00 72 1018.7
20190923135459 75 195 0.0 0.0 0.00 0.00 0.00 72 1018.7
20190923134958 74 195 0.0 0.0 0.00 0.00 0.00 74 1018.7
20190923134459 74 195 0.0 0.0 0.00 0.00 0.00 75 1018.7
20190923133959 74 195 0.0 0.0 0.00 0.00 0.00 75 1018.7
20190923133459 73 195 0.0 0.0 0.00 0.00 0.00 78 1018.7
20190923132959 73 195 0.0 0.0 0.00 0.00 0.00 79 1018.6
20190923132459 72 195 0.0 0.0 0.00 0.00 0.00 79 1018.7
20190923131959 72 195 0.0 0.0 0.00 0.00 0.00 82 1018.7
20190923131459 71 195 0.0 0.0 0.00 0.00 0.00 83 1018.6
20190923130959 70 195 0.0 0.0 0.00 0.00 0.00 85 1018.5
20190923130458 70 195 0.0 0.0 0.00 0.00 0.00 86 1018.5
20190923125959 69 195 0.0 0.0 0.00 0.00 0.00 87 1018.4
20190923125458 69 195 0.0 0.0 0.00 0.00 0.00 88 1018.4
20190923124959 68 195 0.0 0.0 0.00 0.00 0.00 88 1018.4
20190923124459 68 195 0.0 0.0 0.00 0.00 0.00 89 1018.3
20190923123958 67 195 0.0 0.0 0.00 0.00 0.00 89 1018.3
20190923123459 67 195 0.0 0.0 0.00 0.00 0.00 90 1018.3
20190923122959 67 195 0.0 0.0 0.00 0.00 0.00 90 1018.3
20190923122500 66 195 0.0 0.0 0.00 0.00 0.00 90 1018.2
20190923121959 66 195 0.0 0.0 0.00 0.00 0.00 91 1018.3
20190923121459 66 195 0.0 0.0 0.00 0.00 0.00 91 1018.2
20190923120958 66 195 0.0 0.0 0.00 0.00 0.00 91 1018.3
20190923120459 65 195 0.0 0.0 0.00 0.00 0.00 91 1018.3
20190923115959 65 195 0.0 0.0 0.00 0.00 0.00 92 1018.2
20190923115459 65 195 0.0 0.0 0.00 0.00 0.00 92 1018.2
20190923114958 65 195 0.0 0.0 0.00 0.00 0.00 92 1018.1
20190923114459 65 195 0.0 0.0 0.00 0.00 0.00 92 1018.1
20190923113958 64 195 0.0 0.0 0.00 0.00 0.00 92 1018.2
20190923113459 64 195 0.0 0.0 0.00 0.00 0.00 92 1018.1
20190923112959 64 195 0.0 0.0 0.00 0.00 0.00 92 1018.0
20190923112458 64 195 0.0 0.0 0.00 0.00 0.00 92 1017.9
20190923111959 64 195 0.0 0.0 0.00 0.00 0.00 92 1017.8
20190923111458 64 195 0.0 0.0 0.00 0.00 0.00 92 1017.9
20190923110958 64 195 0.0 0.0 0.00 0.00 0.00 92 1017.8
20190923110459 64 195 0.0 0.0 0.00 0.00 0.00 92 1017.9
20190923105959 64 195 0.0 0.0 0.00 0.00 0.00 92 1017.9
20190923105459 63 195 0.0 0.0 0.00 0.00 0.00 92 1017.9
20190923104959 63 195 0.0 0.0 0.00 0.00 0.00 92 1017.9
20190923104458 63 195 0.0 0.0 0.00 0.00 0.00 92 1017.8
20190923103959 63 195 0.0 0.0 0.00 0.00 0.00 92 1017.8
20190923103458 63 195 0.0 0.0 0.00 0.00 0.00 92 1017.9
20190923102959 63 195 0.0 0.0 0.00 0.00 0.00 92 1017.9
20190923102459 63 195 0.0 0.0 0.00 0.00 0.00 92 1017.8
20190923101958 63 195 0.0 0.0 0.00 0.00 0.00 92 1017.8
20190923101501 63 195 0.0 0.0 0.00 0.00 0.00 92 1017.8
20190923100959 63 195 0.0 0.0 0.00 0.00 0.00 92 1017.7
20190923100458 63 195 0.0 0.0 0.00 0.00 0.00 91 1017.6
20190923095958 63 195 0.0 0.0 0.00 0.00 0.00 91 1017.7
20190923095459 63 195 0.0 0.0 0.00 0.00 0.00 91 1017.6
20190923094958 63 195 0.0 0.0 0.00 0.00 0.00 91 1017.6
20190923094458 63 195 0.0 0.0 0.00 0.00 0.00 91 1017.6
20190923093958 63 195 0.0 0.0 0.00 0.00 0.00 91 1017.6
20190923093458 63 195 0.0 0.0 0.00 0.00 0.00 91 1017.6
20190923092959 63 195 0.0 0.0 0.00 0.00 0.00 91 1017.6
20190923092458 63 195 0.0 0.0 0.00 0.00 0.00 91 1017.6
20190923091959 63 195 0.0 0.0 0.00 0.00 0.00 91 1017.6
20190923091459 63 195 0.0 0.0 0.00 0.00 0.00 91 1017.5
20190923090958 63 195 0.0 0.0 0.00 0.00 0.00 90 1017.5
20190923090459 63 195 0.0 0.0 0.00 0.00 0.00 90 1017.5
20190923085959 63 195 0.0 0.0 0.00 0.00 0.00 90 1017.5
20190923085458 63 195 0.0 0.0 0.00 0.00 0.00 90 1017.5
20190923084958 64 195 0.0 0.0 0.00 0.00 0.00 90 1017.5
20190923084459 64 195 0.0 0.0 0.00 0.00 0.00 90 1017.6
20190923083959 64 195 0.0 0.0 0.00 0.00 0.00 89 1017.6
20190923083458 64 195 0.0 0.0 0.00 0.00 0.00 89 1017.6
20190923082959 64 195 0.0 0.0 0.00 0.00 0.00 89 1017.6
20190923082458 64 195 0.0 0.0 0.00 0.00 0.00 89 1017.6
20190923081959 64 195 0.0 0.0 0.00 0.00 0.00 89 1017.5
20190923081459 64 195 0.0 0.0 0.00 0.00 0.00 89 1017.5
20190923080958 64 195 0.0 0.0 0.00 0.00 0.00 88 1017.5
20190923080459 64 195 0.0 0.0 0.00 0.00 0.00 88 1017.6
20190923075958 64 195 0.0 0.0 0.00 0.00 0.00 88 1017.6
20190923075458 64 195 0.0 0.0 0.00 0.00 0.00 88 1017.6
20190923074959 65 195 0.0 0.0 0.00 0.00 0.00 88 1017.6
20190923074458 65 195 0.0 0.0 0.00 0.00 0.00 88 1017.6
20190923073958 65 195 0.0 0.0 0.00 0.00 0.00 88 1017.6
20190923073459 65 195 0.0 0.0 0.00 0.00 0.00 88 1017.6
20190923072958 65 195 0.0 0.0 0.00 0.00 0.00 88 1017.6
20190923072458 65 195 0.0 0.0 0.00 0.00 0.00 88 1017.6
20190923071959 65 195 0.0 0.0 0.00 0.00 0.00 87 1017.7
20190923071458 65 195 0.0 0.0 0.00 0.00 0.00 86 1017.8
20190923070958 65 195 0.0 0.0 0.00 0.00 0.00 86 1017.9
20190923070459 65 195 0.0 0.0 0.00 0.00 0.00 86 1017.9
20190923065959 65 195 0.0 0.0 0.00 0.00 0.00 86 1018.0
20190923065458 65 195 0.0 0.0 0.00 0.00 0.00 86 1018.0
20190923064958 65 195 0.0 0.0 0.00 0.00 0.00 85 1018.0
20190923064459 65 195 0.0 0.0 0.00 0.00 0.00 85 1018.1
20190923063958 65 195 0.0 0.0 0.00 0.00 0.00 85 1018.1
20190923063458 65 195 0.0 0.0 0.00 0.00 0.00 84 1018.2
20190923062958 65 195 0.0 0.0 0.00 0.00 0.00 84 1018.2
20190923062458 65 195 0.0 0.0 0.00 0.00 0.00 84 1018.1
20190923061958 66 195 0.0 0.0 0.00 0.00 0.00 84 1018.1
20190923061458 66 195 0.0 0.0 0.00 0.00 0.00 84 1018.1
20190923060959 66 195 0.0 0.0 0.00 0.00 0.00 83 1018.0
20190923060458 66 195 0.0 0.0 0.00 0.00 0.00 83 1017.9
20190923055959 66 195 0.0 0.0 0.00 0.00 0.00 83 1018.0
20190923055458 66 195 0.0 0.0 0.00 0.00 0.00 83 1018.1
20190923054958 66 195 0.0 0.0 0.00 0.00 0.00 83 1018.0
20190923054459 66 195 0.0 0.0 0.00 0.00 0.00 82 1018.0
20190923053958 66 195 0.0 0.0 0.00 0.00 0.00 82 1018.0
20190923053459 66 195 0.0 0.0 0.00 0.00 0.00 82 1018.0
20190923052958 66 195 0.0 0.0 0.00 0.00 0.00 82 1018.0
20190923052458 66 195 0.0 0.0 0.00 0.00 0.00 82 1018.1
20190923051958 66 195 0.0 0.0 0.00 0.00 0.00 81 1018.2
20190923051458 67 195 0.0 0.0 0.00 0.00 0.00 81 1018.2
20190923050958 67 195 0.0 0.0 0.00 0.00 0.00 81 1018.3
20190923050458 67 195 0.0 0.0 0.00 0.00 0.00 80 1018.3
20190923045959 67 195 0.0 0.0 0.00 0.00 0.00 80 1018.4
20190923045458 67 195 0.0 0.0 0.00 0.00 0.00 79 1018.4
20190923044958 67 195 0.0 0.0 0.00 0.00 0.00 79 1018.5
20190923044458 67 195 0.0 0.0 0.00 0.00 0.00 78 1018.5
20190923043958 67 195 0.0 0.0 0.00 0.00 0.00 78 1018.5
20190923043458 67 195 0.0 0.0 0.00 0.00 0.00 78 1018.5
20190923042958 67 195 0.0 0.0 0.00 0.00 0.00 78 1018.5
20190923042459 67 195 0.0 0.0 0.00 0.00 0.00 77 1018.5
20190923041958 68 195 0.0 0.0 0.00 0.00 0.00 77 1018.5
20190923041458 68 195 0.0 0.0 0.00 0.00 0.00 76 1018.5
20190923040958 68 195 0.0 0.0 0.00 0.00 0.00 76 1018.6
20190923040458 68 195 0.0 0.0 0.00 0.00 0.00 76 1018.6
20190923035958 68 195 0.0 0.0 0.00 0.00 0.00 76 1018.6
20190923035459 68 195 0.0 0.0 0.00 0.00 0.00 76 1018.6
20190923034958 68 195 0.0 0.0 0.00 0.00 0.00 75 1018.6
20190923034458 69 195 0.0 0.0 0.00 0.00 0.00 74 1018.5
20190923033958 69 195 0.0 0.0 0.00 0.00 0.00 74 1018.5
20190923033459 69 195 0.0 0.0 0.00 0.00 0.00 73 1018.4
20190923032958 69 195 0.0 0.0 0.00 0.00 0.00 73 1018.4
20190923032459 69 195 0.0 0.0 0.00 0.00 0.00 72 1018.4
20190923032000 69 195 0.0 0.0 0.00 0.00 0.00 72 1018.4
20190923031458 69 195 0.0 0.0 0.00 0.00 0.00 72 1018.4
20190923030958 69 195 0.0 0.0 0.00 0.00 0.00 71 1018.4
20190923030458 69 195 0.0 0.0 0.00 0.00 0.00 71 1018.5
20190923025958 69 195 0.0 0.0 0.00 0.00 0.00 71 1018.4
20190923025458 69 195 0.0 0.0 0.00 0.00 0.00 71 1018.4
20190923024959 70 195 0.0 0.0 0.00 0.00 0.00 71 1018.4
20190923024458 70 195 0.0 0.0 0.00 0.00 0.00 70 1018.4
20190923023959 70 195 0.0 0.0 0.00 0.00 0.00 70 1018.4
20190923023459 70 195 0.0 0.0 0.00 0.00 0.00 69 1018.4
20190923022958 70 195 0.0 0.0 0.00 0.00 0.00 69 1018.2
20190923022458 70 195 0.0 0.0 0.00 0.00 0.00 68 1018.3
20190923021959 71 195 0.0 0.0 0.00 0.00 0.00 68 1018.2
20190923021458 71 195 0.0 0.0 0.00 0.00 0.00 68 1018.3
20190923020958 71 195 0.0 0.0 0.00 0.00 0.00 68 1018.3
20190923020458 71 195 0.0 0.0 0.00 0.00 0.00 67 1018.3
20190923015958 71 195 0.0 0.0 0.00 0.00 0.00 66 1018.3
20190923015458 72 195 0.0 0.0 0.00 0.00 0.00 66 1018.2
20190923015000 72 195 0.0 0.0 0.00 0.00 0.00 66 1018.2
20190923014458 72 195 0.0 0.0 0.00 0.00 0.00 65 1018.2
20190923013958 72 195 0.0 0.0 0.00 0.00 0.00 64 1018.1
20190923013459 72 195 0.0 0.0 0.00 0.00 0.00 64 1018.1
20190923012958 72 195 0.0 0.0 0.00 0.00 0.00 63 1018.1
20190923012459 73 195 0.0 0.0 0.00 0.00 0.00 63 1018.0
20190923012000 73 195 0.0 0.0 0.00 0.00 0.00 62 1018.0
20190923011458 73 195 0.0 0.0 0.00 0.00 0.00 62 1017.9
20190923010957 74 195 0.0 0.0 0.00 0.00 0.00 61 1017.8
20190923010459 74 195 0.0 0.0 0.00 0.00 0.00 60 1017.8
20190923005958 74 195 0.0 0.0 0.00 0.00 0.00 60 1017.8
20190923005458 75 195 0.0 0.0 0.00 0.00 0.00 59 1017.7
20190923004958 75 195 0.0 0.0 0.00 0.00 0.00 59 1017.7
20190923004458 75 195 0.0 0.0 0.00 0.00 0.00 58 1017.8
20190923003958 76 195 0.0 0.0 0.00 0.00 0.00 57 1017.8
20190923003458 76 195 0.0 0.0 0.00 0.00 0.00 56 1017.7
20190923002958 77 195 0.0 0.0 0.00 0.00 0.00 55 1017.7
20190923002458 78 195 0.0 0.0 0.00 0.00 0.00 55 1017.6
20190923001958 78 195 0.0 0.0 0.00 0.00 0.00 54 1017.6
20190923001457 79 195 0.0 0.0 0.00 0.00 0.00 53 1017.6
20190923000958 79 195 0.0 0.0 0.00 0.00 0.00 52 1017.6
20190923000458 80 195 0.0 0.0 0.00 0.00 0.00 51 1017.5
20190922235958 81 195 0.0 0.0 0.00 0.00 0.00 50 1017.5
20190922235458 81 195 0.0 0.0 0.00 0.00 0.00 48 1017.5
20190922234958 82 195 0.0 0.0 0.00 0.00 0.00 48 1017.4
20190922234458 82 195 0.0 0.0 0.00 0.00 0.00 46 1017.4
20190922233958 83 195 0.0 0.0 0.00 0.00 0.00 45 1017.2
20190922233458 84 195 0.0 0.0 0.00 0.00 0.00 44 1017.4
20190922232958 84 195 0.0 0.0 0.00 0.00 0.00 43 1017.2
20190922232459 85 195 0.0 0.0 0.00 0.00 0.00 43 1017.2
20190922231958 85 195 0.0 0.0 0.00 0.00 0.00 42 1017.2
20190922231458 86 195 0.0 0.0 0.00 0.00 0.00 41 1017.1
20190922230957 87 195 0.0 3.0 0.00 0.00 0.00 40 1017.1
20190922230458 87 188 0.0 3.0 0.00 0.00 0.00 40 1017.1
20190922225957 87 137 0.0 1.0 0.00 0.00 0.00 39 1017.1
20190922225458 88 137 0.0 1.0 0.00 0.00 0.00 38 1017.0
20190922224958 88 137 0.0 0.0 0.00 0.00 0.00 38 1017.0
20190922224458 89 137 0.0 0.0 0.00 0.00 0.00 36 1017.0
20190922223958 90 137 0.0 7.0 0.00 0.00 0.00 36 1017.0
20190922223457 90 146 0.0 7.0 0.00 0.00 0.00 35 1017.0
20190922222958 90 178 0.0 3.0 0.00 0.00 0.00 36 1017.1
20190922222457 90 178 0.0 0.0 0.00 0.00 0.00 35 1017.1
20190922221958 90 178 0.0 5.0 0.00 0.00 0.00 36 1017.1
20190922221458 90 178 0.0 7.0 0.00 0.00 0.00 35 1017.1
20190922220957 90 180 2.0 7.0 0.00 0.00 0.00 35 1017.2
20190922220458 90 186 2.0 7.0 0.00 0.00 0.00 35 1017.2
20190922215958 91 139 0.0 10.0 0.00 0.00 0.00 34 1017.2
20190922215458 91 161 1.0 10.0 0.00 0.00 0.00 34 1017.2
20190922214958 91 155 1.0 7.0 0.00 0.00 0.00 33 1017.2
20190922214457 91 194 2.0 10.0 0.00 0.00 0.00 32 1017.1
20190922213958 91 171 1.0 10.0 0.00 0.00 0.00 32 1017.2
20190922213457 91 129 0.0 7.0 0.00 0.00 0.00 33 1017.2
20190922213000 91 222 0.0 11.0 0.00 0.00 0.00 32 1017.2
20190922212458 91 222 0.0 11.0 0.00 0.00 0.00 32 1017.2
20190922211958 91 226 3.0 10.0 0.00 0.00 0.00 32 1017.4
20190922211458 92 187 7.0 11.0 0.00 0.00 0.00 32 1017.2
20190922210958 92 193 6.0 11.0 0.00 0.00 0.00 31 1017.2
20190922210459 92 185 2.0 8.0 0.00 0.00 0.00 33 1017.4
20190922205958 92 92 0.0 6.0 0.00 0.00 0.00 33 1017.2
20190922205458 92 125 1.0 10.0 0.00 0.00 0.00 33 1017.2
20190922204959 92 184 1.0 10.0 0.00 0.00 0.00 32 1017.2
20190922204458 92 202 2.0 7.0 0.00 0.00 0.00 33 1017.2
20190922203958 92 181 0.0 6.0 0.00 0.00 0.00 33 1017.2
20190922203457 92 185 1.0 6.0 0.00 0.00 0.00 33 1017.5
20190922202958 92 167 0.0 9.0 0.00 0.00 0.00 32 1017.5
20190922202458 92 185 5.0 10.0 0.00 0.00 0.00 33 1017.7
20190922201958 92 175 5.0 10.0 0.00 0.00 0.00 33 1017.6
20190922201457 92 162 3.0 10.0 0.00 0.00 0.00 33 1017.6
20190922200958 92 133 2.0 6.0 0.00 0.00 0.00 34 1017.7
20190922200459 92 177 0.0 7.0 0.00 0.00 0.00 34 1017.7
20190922195958 92 168 3.0 7.0 0.00 0.00 0.00 34 1017.7
20190922195458 92 163 0.0 6.0 0.00 0.00 0.00 34 1017.8
20190922194958 91 130 2.0 9.0 0.00 0.00 0.00 35 1017.9
20190922194457 91 163 3.0 12.0 0.00 0.00 0.00 35 1018.0
20190922193958 91 189 2.0 13.0 0.00 0.00 0.00 35 1018.1
20190922193457 91 194 6.0 13.0 0.00 0.00 0.00 34 1018.1
20190922192958 91 306 6.0 12.0 0.00 0.00 0.00 33 1018.2
20190922192458 91 218 3.0 12.0 0.00 0.00 0.00 34 1018.3
20190922191957 91 157 2.0 10.0 0.00 0.00 0.00 34 1018.4
20190922191458 91 188 4.0 14.0 0.00 0.00 0.00 34 1018.3
20190922190957 91 195 2.0 14.0 0.00 0.00 0.00 34 1018.5
20190922190458 91 199 7.0 14.0 0.00 0.00 0.00 34 1018.6
20190922185958 91 98 1.0 9.0 0.00 0.00 0.00 34 1018.7
20190922185457 90 139 2.0 9.0 0.00 0.00 0.00 36 1018.8
20190922184958 90 127 2.0 9.0 0.00 0.00 0.00 36 1018.9
20190922184458 90 86 2.0 10.0 0.00 0.00 0.00 35 1018.9
20190922183958 91 170 2.0 12.0 0.00 0.00 0.00 36 1019.1
20190922183457 90 181 5.0 12.0 0.00 0.00 0.00 36 1019.1
20190922182958 90 177 0.0 12.0 0.00 0.00 0.00 36 1019.1
20190922182458 90 142 1.0 12.0 0.00 0.00 0.00 36 1019.3
20190922181957 90 154 2.0 11.0 0.00 0.00 0.00 37 1019.3
20190922181458 90 138 1.0 14.0 0.00 0.00 0.00 37 1019.3
20190922180957 89 188 8.0 14.0 0.00 0.00 0.00 36 1019.4
20190922180458 89 174 5.0 10.0 0.00 0.00 0.00 37 1019.4
20190922175957 89 197 1.0 9.0 0.00 0.00 0.00 37 1019.5
20190922175457 89 178 0.0 12.0 0.00 0.00 0.00 38 1019.6
20190922174957 89 208 5.0 13.0 0.00 0.00 0.00 36 1019.8
20190922174458 90 184 6.0 13.0 0.00 0.00 0.00 36 1019.7
20190922173957 89 128 1.0 14.0 0.00 0.00 0.00 37 1019.8
20190922173457 89 171 2.0 14.0 0.00 0.00 0.00 39 1019.8
20190922172958 89 167 0.0 11.0 0.00 0.00 0.00 38 1019.9
20190922172457 89 280 3.0 10.0 0.00 0.00 0.00 38 1020.0